Regional Weather Roundup
Issued by NWS Raleigh/Durham, NC

Home | Current Version | Previous Version | Text Only | Print | Product List | Glossary On
Versions: 1 2 3 4 5 6 7 8 9 10 11 12 13 14 15 16 17 18 19 20 21 22 23 24 25 26 27 28 29 30 31 32 33 34 35 36 37 38 39 40 41 42 43 44 45 46 47 48 49 50
000
ASUS42 KRAH 290010
RWRRAH
NORTH CAROLINA WEATHER ROUNDUP
NATIONAL WEATHER SERVICE RALEIGH NC
800 PM EDT SAT MAY 28 2016

NOTE: "FAIR" INDICATES FEW OR NO CLOUDS BELOW 12,000 FEET WITH NO
SIGNIFICANT WEATHER AND/OR OBSTRUCTIONS TO VISIBILITY.

NCZ001-053-055-056-065-067-290100-
WESTERN NORTH CAROLINA

CITY           SKY/WX    TMP DP  RH WIND       PRES   REMARKS
ASHEVILLE      CLOUDY    75  52  44 E3        30.19S
JEFFERSON      CLOUDY    67  54  64 CALM      30.25R
MORGANTON      CLOUDY    74  68  82 CALM      30.20S
HICKORY        CLOUDY    76  57  51 CALM      30.15R
RUTHERFORDTON  CLOUDY    76  59  55 CALM      30.16R
MOUNT AIRY     CLOUDY    78  62  58 E3        30.18R
BOONE          CLOUDY    67  51  57 CALM      30.26R
$$

NCZ021-022-025-041-071-084-088-290100-
CENTRAL NORTH CAROLINA

CITY           SKY/WX    TMP DP  RH WIND       PRES   REMARKS
CHARLOTTE      CLOUDY    81  53  37 NE5       30.13S
GREENSBORO     MOCLDY    78  55  44 E5        30.14R
WINSTON-SALEM  CLOUDY    78  59  51 E5        30.16R
RALEIGH-DURHAM MOCLDY    80  61  52 E6        30.12R
FORT BRAGG     CLOUDY    80  65  59 E5        30.10R
FAYETTEVILLE   CLOUDY    80  66  62 SE6       30.10R
BURLINGTON     PTCLDY    79  58  48 CALM      30.13R
LAURINBURG     CLOUDY    75  68  78 CALM      30.12R
$$

NCZ011-015-027-028-043-044-047-080-103-290100-
NORTHEASTERN NORTH CAROLINA

CITY           SKY/WX    TMP DP  RH WIND       PRES   REMARKS
ROCKY MT-WILSO MOCLDY    81  66  60 VRB3      30.12R
GREENVILLE     PTCLDY    81  64  57 SE6       30.13S
WASHINGTON     CLEAR     76  67  72 SE8       30.12S
ELIZABETH CITY CLEAR     74  66  76 E8        30.15S
MANTEO         NOT AVBL
CAPE HATTERAS  MOCLDY    75  69  81 E5        30.13F
$$

NCZ078-087-090-091-093-098-101-290100-
SOUTHEASTERN NORTH CAROLINA

CITY           SKY/WX    TMP DP  RH WIND       PRES   REMARKS
LUMBERTON      MOCLDY    75  71  87 CALM      30.10R
GOLDSBORO      NOT AVBL
KINSTON        CLOUDY    81  63  54 E3        30.12S
KENANSVILLE    CLOUDY    76  61  57 CALM      30.12R
NEW BERN       CLEAR     77  68  73 E8        30.13S
CHERRY POINT   MOCLDY    77  70  79 NE8       30.12S
BEAUFORT       PTCLDY    77  71  82 E8        30.11S
JACKSONVILLE   CLOUDY    78  67  68 E9        30.10R
WILMINGTON     MOCLDY    76  68  76 E14G20    30.10R
$$




USA.gov is the U.S. government's official web portal to all federal, state and local government web resources and services.